Погода в Сочи

Погода в Сочи : погода сейчас, прогноз погоды и архив. Всё, что Вы хотите узнать о погоде в Сочи!

Поиск расширенной информации на нашем сайте:

Другие новости

Новости СМИ2

Главная страница сайта

Новости сайта

03.07.2017

Напоминаем, что на нашем специализированном сайте Метеоцентр.Азия вы можете получить высокодетализированные автоматические прогнозы погоды по пунктам России, СНГ и мира в авиационном формате (включающие направление и скорость ветра, видимость, явления погоды, количество и форму облачности, нижнюю и верхнюю границу облачности).


Погода в Сочи - сегодня

Время (UTC), дата Ветер
(°,м/с) 
Видим.   Явления Облачность Т
(°С)
Тd
(°С)
f(%) Тe
(°С)
Pmin
(гПа)
dP
(гПа)
Po
(мм)
O2
(г/м3)
Тmin Tmax R s Состояние
почвы
03 19.11.17 070 (В) 4000 м    3/0 верхняя 
[Ci fib]
+8.1 +6.1 87 +8  1012.9  -1.5  758  296  +7.7         
06 19.11.17 060 (СВ) 20000 м    8/0 средняя, верхняя 
[Ac trans|Ci fib]
+11.7 +5.1 64 +11  1012.6  -0.3  758  292  +7.3         
09 19.11.17 100 (В) 20000 м    10/0 средняя, верхняя 
[Ac trans|Ci fib]
+17.9 +6.1 46 +19  1011.8  -0.7  758  286           
12 19.11.17 120 (ЮВ) 20000 м    10/0 средняя, верхняя 
[Ac trans|Ci fib]
+19.7 +5.8 40 +21  1011.3  -0.6  757  284           
15 19.11.17 070 (В) 4000 м    10/0 средняя 
[Ac und]
+15.9 +7 55 +16  1010.4  -0.9  756  287    +21.1       
18 19.11.17 130 (ЮВ) 5{12}  4000 м    10/0 средняя 
[Ac und]
+20.3 +6.7 41 +20  1011.6  1.2  757  283           
21 19.11.17 110 (В) 4{13}  4000 м    10/0 средняя 
[Ac und]
+20 +6.5 41 +20  1011.5  -0.1  757  283           
00 20.11.17 150 (ЮВ) 4000 м    10/0 средняя 
[Ac und]
+18.1 +8.6 54 +19  1012.5  758  285           
03 20.11.17 080 (В) 4000 м  в посл. час ливневой дождь  10/10 1500 м кучево-дожд. 
[Cb cap]
+14.3 +11.3 82 +17  1011.4  -1.1  757  288  +13.3    0.3     
06 20.11.17 070 (В) 20000 м  {ливн. осадки}  10/0 средняя 
[Ac und]
+14.6 +10 74 +15  1010.8  -0.6  757  288  +13.1         
09 20.11.17 110 (В) 4{11}  20000 м    10/8 1200 м кучево-дожд., средняя 
[Cb cap|Ac und]
+19.5 +6.5 43 +20  1010  -0.8  756  283           
12 20.11.17 130 (ЮВ) 6-10{11}  20000 м  {ливн. осадки}  9/3 1500 м кучево-дожд., средняя 
[Cb cap|Ac As]
+20.7 +5.1 36 +21  1008.2  -1.8  755  282           
15 20.11.17 050 (СВ) 4000 м  в посл. час ливневой дождь  10/4 1500 м кучево-дожд., средняя 
[Cb cap|Ac und]
+16.3 +9.4 64 +17  1007.3  -0.9  754  285    +21  0.0     
18 20.11.17 040 (СВ) 4000 м  {ливн. осадки}  4/0 средняя 
[Ac trans]
+14.3 +8.5 68 +14  1005.1  -2.2  752  287           
21 20.11.17 110 (В) 4000 м    8/0 средняя 
[Ac trans]
+16.2 +6.1 51 +16  1003.2  -1.9  751  285           
00 21.11.17 240 (ЮЗ) 4{14}  4000 м  слаб. ливневой дождь  10/6 1500 м кучево-дожд., средняя 
[Cb cap|Ac und]
+18.6 +8.1 50 +19  1001.4  3.4  751  282           
03 21.11.17 120 (ЮВ) 4000 м  в посл. час ливневой дождь  10/5 1500 м кучево-дожд., средняя 
[Cb cap|Ac As]
+18.2 +6.1 45 +18  1002.1  -1  750  282  +14    0.0     
06 21.11.17 070 (В) 5{12}  20000 м  {ливн. осадки}  10/3 1500 м кучево-дожд., средняя 
[Cb cap|Ac und]
+15.6 +7.6 59 +15  999.6  -2.6  748  284           
09 21.11.17 120 (ЮВ) 7-11{11}  20000 м    10/4 1500 м кучево-дожд., средняя 
[Cb cap|Ac und]
+21.6 +4.5 33 +22  996.5  -3  746  278           
12 21.11.17 100 (В) 5{14}  20000 м  {ливн. осадки}  10/4 1500 м кучево-дожд., средняя 
[Cb cap|Ac und]
+20 +9 49 +20  995  -1.5  745  278           
15 21.11.17 260 (З) 4000 м  слаб. ливневой дождь  10/10 600 м кучево-дожд. 
[Cb cap]
+14.7 +12 84 +18  998.2  3.1  747  283    +22     
18 21.11.17 280 (З) 7-13  4000 м  в посл. час ливневой дождь  10/10 750 м кучево-дожд. 
[Cb cap]
+10.7 +9.3 91 +9  1003.5  5.3  751  290           
21 21.11.17 290 (З) 5-13{14}  4000 м  слаб. ливневой дождь  10/10 300 м кучево-дожд. 
[Cb cap]
+7.1 +5.5 90 +5  1009.7  6.1  756  296           
00 22.11.17 тихо () {14}  4000 м  в посл. час ливневой дождь  10/6 1500 м кучево-дожд., средняя 
[Cb cap|Ac und]
+6.4 +3.6 82 +6  1012.8  3.1  758  298           
03 22.11.17 010 (С) 4000 м    10/4 1500 м кучево-дожд., средняя 
[Cb cap|Ac und]
+5.7 +3.6 86 +5  1014.1  1.3  759  299  +5.3    15     
Время (UTC), дата Ветер
(°,м/с) 
Видим.   Явления Облачность Т
(°С)
Тd
(°С)
f(%) Тe
(°С)
Pmin
(гПа)
dP
(гПа)
Po
(мм)
O2
(г/м3)
Тmin Tmax R s Состояние
почвы

Для получения пояснительной информации подведите курсор к названию столбца.

ПОГОДА в Сочи - архив

Всё, что Вы хотите узнать о погоде в Сочи - удобно и подробно!

Выберите нужную дату (начиная с 1 января 2015* года) и нажмите кнопку "Найти".
Будут отображены архивные сводки погоды по пункту Сочи, начиная с указанной даты.


Отображать данные в формате CSV (для использования в таблицах Excel)


Внимание! Наш архив погоды предназначен исключительно для личного некоммерческого использования в познавательных целях. Если Вам необходимы официальные справки о состоянии погоды (для производственных, юридических, коммерческих и т.п. целей), обращайтесь в органы Росгидромета.

*Примечание: данная дата относится к архиву по метеостанциям СССР (Россия, СНГ, Балтия).
Архив по метеостанциям Зарубежной Европы и Азии (кроме Китая) хранится 10 дней, по другим регионам земного шара (Китай, Африка, Америка, Австралия, Океания) - 1 день.

Сочи - район местоположения метеостанции


Название, широта, долгота, высота метеостанции:
Сочи (Адлер) 43.4°ш. 39.9°д. 13 м над ур. моря [Российская Федерация]

Дополнительная информация

В oтличие oт бoльшинства пoгoдных сайтoв мы публикуем пoдрoбную метеoинфoрмацию в детальнoм прoфессиoнальнoм фoрмате.

Характеристики температуры и влажнoсти вoздуха измеряются на высoте 2 м в тени вдали oт зданий и деревьев.
Скoрoсть ветра измеряется на высoте 10 м (на урoвне рoста челoвека скoрoсть ветра ниже в 1.5-2 раза). Если метеoстанция нахoдится в гoрoде или в лесу, тo скoрoсть ветра занижена на 2-4 м/с пo сравнению с oткрытым местoм. Скoрoсть ветра над акватoриями крупных рек и oзёр, а также на вершинах хoлмoв на 2-5 м/с выше, чем в oбычных услoвиях.
Атмoсфернoе давление в разных тoчках местнoсти мoжет значительнo oтличаться oт давления на метеoстанции, в зависимoсти oт услoвий рельефа (при пoдъёме на 10 м давление пoнижается примернo на 1 мм рт.ст.).